Time,TemperatureF,DewpointF,PressureIn,WindDirection,WindDirectionDegrees,WindSpeedMPH,WindSpeedGustMPH,Humidity,HourlyPrecipIn,Conditions,Clouds,dailyrainin,SoftwareType,DateUTC
2013-06-26 00:05:00,83.3,70.3,29.85,SSE,152,0.0,0.0,65,0.00,,,0.00,Wunderground v.1.15,2013-06-26 05:05:00,
2013-06-26 00:10:00,83.1,70.1,29.85,SE,127,0.0,0.0,65,0.00,,,0.00,Wunderground v.1.15,2013-06-26 05:10:00,
2013-06-26 00:20:00,82.8,69.8,29.85,SE,140,0.0,0.0,65,0.00,,,0.00,Wunderground v.1.15,2013-06-26 05:20:00,
2013-06-26 00:25:00,82.6,69.6,29.86,SSE,151,0.0,0.0,65,0.00,,,0.00,Wunderground v.1.15,2013-06-26 05:25:00,
2013-06-26 00:35:00,82.4,69.9,29.86,SE,138,0.0,0.0,66,0.00,,,0.00,Wunderground v.1.15,2013-06-26 05:35:00,
2013-06-26 00:45:00,82.0,69.5,29.86,SE,135,0.0,0.0,66,0.00,,,0.00,Wunderground v.1.15,2013-06-26 05:45:00,
2013-06-26 00:55:00,81.5,69.5,29.85,ESE,115,0.0,0.0,67,0.00,,,0.00,Wunderground v.1.15,2013-06-26 05:55:00,
2013-06-26 01:06:00,81.1,69.5,29.86,East,82,0.0,0.0,68,0.00,,,0.00,Wunderground v.1.15,2013-06-26 06:06:00,
2013-06-26 01:15:00,80.7,69.6,29.85,SE,140,0.0,0.0,69,0.00,,,0.00,Wunderground v.1.15,2013-06-26 06:15:00,
2013-06-26 01:25:00,80.3,69.2,29.84,SSE,156,0.0,0.0,69,0.00,,,0.00,Wunderground v.1.15,2013-06-26 06:25:00,
2013-06-26 01:35:00,80.0,69.7,29.84,SE,125,0.0,0.0,71,0.00,,,0.00,Wunderground v.1.15,2013-06-26 06:35:00,
2013-06-26 01:45:00,79.6,69.8,29.84,SE,130,0.0,0.0,72,0.00,,,0.00,Wunderground v.1.15,2013-06-26 06:45:00,
2013-06-26 01:50:00,79.5,70.1,29.84,ESE,116,0.0,0.0,73,0.00,,,0.00,Wunderground v.1.15,2013-06-26 06:50:00,
2013-06-26 01:58:00,79.2,70.2,29.84,North,-999,0.0,0.0,74,0.00,,,-99.99,WeatherLink 5.7,2013-06-26 06:58:00,
2013-06-26 02:06:00,79.0,70.0,29.84,SE,144,0.0,0.0,74,0.00,,,0.00,Wunderground v.1.15,2013-06-26 07:06:00,
2013-06-26 02:15:00,78.7,70.1,29.84,SE,141,0.0,0.0,75,0.00,,,0.00,Wunderground v.1.15,2013-06-26 07:15:00,
2013-06-26 02:20:00,78.5,70.3,29.84,SE,138,0.0,0.0,76,0.00,,,0.00,Wunderground v.1.15,2013-06-26 07:20:00,
2013-06-26 02:25:00,78.4,70.2,29.85,SE,135,0.0,0.0,76,0.00,,,0.00,Wunderground v.1.15,2013-06-26 07:25:00,
2013-06-26 02:35:00,78.2,70.4,29.84,SE,144,0.0,0.0,77,0.00,,,0.00,Wunderground v.1.15,2013-06-26 07:35:00,
2013-06-26 02:40:00,78.1,70.3,29.85,SE,146,0.0,0.0,77,0.00,,,0.00,Wunderground v.1.15,2013-06-26 07:40:00,
2013-06-26 02:50:00,77.9,70.1,29.84,SSE,158,0.0,0.0,77,0.00,,,0.00,Wunderground v.1.15,2013-06-26 07:50:00,
2013-06-26 02:58:00,77.7,69.9,29.84,North,-999,0.0,0.0,77,0.00,,,-99.99,WeatherLink 5.7,2013-06-26 07:58:00,
2013-06-26 03:05:00,77.5,70.1,29.84,SE,142,0.0,0.0,78,0.00,,,0.00,Wunderground v.1.15,2013-06-26 08:05:00,
2013-06-26 03:15:00,77.3,69.9,29.84,SSE,165,0.0,0.0,78,0.00,,,0.00,Wunderground v.1.15,2013-06-26 08:15:00,
2013-06-26 03:25:00,77.2,69.8,29.85,SE,140,0.0,0.0,78,0.00,,,0.00,Wunderground v.1.15,2013-06-26 08:25:00,
2013-06-26 03:30:00,77.3,70.3,29.85,SE,124,0.0,0.0,79,0.00,,,0.00,Wunderground v.1.15,2013-06-26 08:30:00,
2013-06-26 03:40:00,77.3,70.3,29.85,SE,137,0.0,0.0,79,0.00,,,0.00,Wunderground v.1.15,2013-06-26 08:40:00,
2013-06-26 03:50:00,77.5,70.5,29.85,SSE,164,0.0,0.0,79,0.00,,,0.00,Wunderground v.1.15,2013-06-26 08:50:00,
2013-06-26 03:59:00,77.6,70.6,29.86,North,-999,0.0,0.0,79,0.00,,,-99.99,WeatherLink 5.7,2013-06-26 08:59:00,
2013-06-26 04:06:00,77.8,70.8,29.85,South,171,0.0,0.0,79,0.00,,,0.00,Wunderground v.1.15,2013-06-26 09:06:00,
2013-06-26 04:15:00,77.8,70.8,29.86,SE,139,0.0,0.0,79,0.00,,,0.00,Wunderground v.1.15,2013-06-26 09:15:00,
2013-06-26 04:20:00,77.9,70.9,29.86,SSE,151,0.0,0.0,79,0.00,,,0.00,Wunderground v.1.15,2013-06-26 09:20:00,
2013-06-26 04:29:00,77.9,70.9,29.85,North,-999,0.0,0.0,79,0.00,,,-99.99,WeatherLink 5.7,2013-06-26 09:29:00,
2013-06-26 04:35:00,77.9,70.9,29.86,SSE,156,0.0,0.0,79,0.00,,,0.00,Wunderground v.1.15,2013-06-26 09:35:00,
2013-06-26 04:40:00,77.9,70.9,29.86,South,188,0.0,0.0,79,0.00,,,0.00,Wunderground v.1.15,2013-06-26 09:40:00,
2013-06-26 04:50:00,78.0,70.6,29.85,SE,144,0.0,0.0,78,0.00,,,0.00,Wunderground v.1.15,2013-06-26 09:50:00,
2013-06-26 04:55:00,78.0,70.6,29.86,SSW,196,0.0,0.0,78,0.00,,,0.00,Wunderground v.1.15,2013-06-26 09:55:00,
2013-06-26 05:05:00,78.0,70.6,29.86,SSW,202,0.0,0.0,78,0.00,,,0.00,Wunderground v.1.15,2013-06-26 10:05:00,
2013-06-26 05:10:00,78.1,70.7,29.86,South,189,0.0,0.0,78,0.00,,,0.00,Wunderground v.1.15,2013-06-26 10:10:00,
2013-06-26 05:20:00,78.1,70.7,29.86,SE,136,0.0,0.0,78,0.00,,,0.00,Wunderground v.1.15,2013-06-26 10:20:00,
2013-06-26 05:25:00,78.2,70.8,29.87,SSW,195,0.0,0.0,78,0.00,,,0.00,Wunderground v.1.15,2013-06-26 10:25:00,
2013-06-26 05:35:00,78.3,70.5,29.87,SE,142,0.0,0.0,77,0.00,,,0.00,Wunderground v.1.15,2013-06-26 10:35:00,
2013-06-26 05:45:00,78.5,70.7,29.88,SSW,196,0.0,0.0,77,0.00,,,0.00,Wunderground v.1.15,2013-06-26 10:45:00,
2013-06-26 05:55:00,78.6,70.4,29.87,SE,126,0.0,0.0,76,0.00,,,0.00,Wunderground v.1.15,2013-06-26 10:55:00,
2013-06-26 06:00:00,78.7,70.5,29.87,SSW,196,0.0,0.0,76,0.00,,,0.00,Wunderground v.1.15,2013-06-26 11:00:00,
2013-06-26 06:06:00,78.7,70.5,29.88,SE,142,0.0,0.0,76,0.00,,,0.00,Wunderground v.1.15,2013-06-26 11:06:00,
2013-06-26 06:15:00,78.8,70.2,29.88,SSW,198,0.0,0.0,75,0.00,,,0.00,Wunderground v.1.15,2013-06-26 11:15:00,
2013-06-26 06:25:00,78.9,70.3,29.88,South,190,0.0,0.0,75,0.00,,,0.00,Wunderground v.1.15,2013-06-26 11:25:00,
2013-06-26 06:35:00,78.7,70.1,29.88,SE,138,0.0,0.0,75,0.00,,,0.00,Wunderground v.1.15,2013-06-26 11:35:00,
2013-06-26 06:40:00,78.7,70.1,29.89,SSW,194,0.0,0.0,75,0.00,,,0.00,Wunderground v.1.15,2013-06-26 11:40:00,
2013-06-26 06:50:00,78.7,70.1,29.89,SE,133,0.0,0.0,75,0.00,,,0.00,Wunderground v.1.15,2013-06-26 11:50:00,
2013-06-26 06:59:00,78.6,70.4,29.90,North,-999,0.0,0.0,76,0.00,,,-99.99,WeatherLink 5.7,2013-06-26 11:59:00,
2013-06-26 07:06:00,78.7,70.5,29.90,SE,136,0.0,0.0,76,0.00,,,0.00,Wunderground v.1.15,2013-06-26 12:06:00,
2013-06-26 07:15:00,78.7,70.5,29.89,SSE,157,0.0,0.0,76,0.00,,,0.00,Wunderground v.1.15,2013-06-26 12:15:00,
2013-06-26 07:20:00,78.7,70.9,29.90,South,190,0.0,0.0,77,0.00,,,0.00,Wunderground v.1.15,2013-06-26 12:20:00,
2013-06-26 07:29:00,78.7,70.9,29.90,North,-999,0.0,0.0,77,0.00,,,-99.99,WeatherLink 5.7,2013-06-26 12:29:00,
2013-06-26 07:35:00,78.7,70.9,29.90,SE,145,0.0,0.0,77,0.00,,,0.00,Wunderground v.1.15,2013-06-26 12:35:00,
2013-06-26 07:45:00,79.0,71.2,29.90,SW,234,0.0,0.0,77,0.00,,,0.00,Wunderground v.1.15,2013-06-26 12:45:00,
2013-06-26 07:55:00,79.4,71.6,29.90,SE,136,0.0,0.0,77,0.00,,,0.00,Wunderground v.1.15,2013-06-26 12:55:00,
2013-06-26 08:05:00,79.7,71.5,29.90,SW,235,0.0,0.0,76,0.00,,,0.00,Wunderground v.1.15,2013-06-26 13:05:00,
2013-06-26 08:15:00,79.9,71.3,29.90,SE,138,0.0,0.0,75,0.00,,,0.00,Wunderground v.1.15,2013-06-26 13:15:00,
2013-06-26 08:25:00,80.0,71.4,29.90,SSE,165,0.0,0.0,75,0.00,,,0.00,Wunderground v.1.15,2013-06-26 13:25:00,
2013-06-26 08:35:00,80.1,71.5,29.90,SSE,163,0.0,0.0,75,0.00,,,0.00,Wunderground v.1.15,2013-06-26 13:35:00,
2013-06-26 08:40:00,80.2,71.6,29.90,SE,144,0.0,0.0,75,0.00,,,0.00,Wunderground v.1.15,2013-06-26 13:40:00,
2013-06-26 08:50:00,80.2,71.6,29.91,SE,140,0.0,0.0,75,0.00,,,0.00,Wunderground v.1.15,2013-06-26 13:50:00,
2013-06-26 08:58:00,80.2,71.6,29.90,North,-999,0.0,0.0,75,0.00,,,-99.99,WeatherLink 5.7,2013-06-26 13:58:00,
2013-06-26 09:06:00,80.3,71.6,29.90,SSW,199,0.0,0.0,75,0.00,,,0.00,Wunderground v.1.15,2013-06-26 14:06:00,
2013-06-26 09:15:00,80.4,71.7,29.91,South,172,0.0,0.0,75,0.00,,,0.00,Wunderground v.1.15,2013-06-26 14:15:00,
2013-06-26 09:20:00,80.4,72.1,29.91,SSE,159,0.0,0.0,76,0.00,,,0.00,Wunderground v.1.15,2013-06-26 14:20:00,
2013-06-26 09:28:00,80.5,71.8,29.91,North,-999,0.0,0.0,75,0.00,,,-99.99,WeatherLink 5.7,2013-06-26 14:28:00,
2013-06-26 09:35:00,80.5,72.2,29.91,South,172,0.0,0.0,76,0.00,,,0.00,Wunderground v.1.15,2013-06-26 14:35:00,
2013-06-26 09:40:00,80.5,72.2,29.91,SSW,201,0.0,0.0,76,0.00,,,0.00,Wunderground v.1.15,2013-06-26 14:40:00,
2013-06-26 09:50:00,80.7,72.0,29.91,SE,132,0.0,0.0,75,0.00,,,0.00,Wunderground v.1.15,2013-06-26 14:50:00,
2013-06-26 09:55:00,80.8,72.1,29.91,SSE,148,0.0,0.0,75,0.00,,,0.00,Wunderground v.1.15,2013-06-26 14:55:00,
2013-06-26 10:06:00,80.9,72.2,29.91,SSW,202,0.0,0.0,75,0.00,,,0.00,Wunderground v.1.15,2013-06-26 15:06:00,
2013-06-26 10:15:00,81.1,72.4,29.91,SSW,198,0.0,0.0,75,0.00,,,0.00,Wunderground v.1.15,2013-06-26 15:15:00,
2013-06-26 10:20:00,81.2,72.5,29.91,SSW,200,0.0,0.0,75,0.00,,,0.00,Wunderground v.1.15,2013-06-26 15:20:00,
2013-06-26 10:29:00,81.2,72.5,29.91,North,-999,0.0,0.0,75,0.00,,,-99.99,WeatherLink 5.7,2013-06-26 15:29:00,
2013-06-26 10:35:00,81.3,72.6,29.91,SE,144,0.0,0.0,75,0.00,,,0.00,Wunderground v.1.15,2013-06-26 15:35:00,
2013-06-26 10:45:00,81.4,72.3,29.91,SE,138,0.0,0.0,74,0.00,,,0.00,Wunderground v.1.15,2013-06-26 15:45:00,
2013-06-26 10:55:00,81.6,72.5,29.91,SSW,194,0.0,0.0,74,0.00,,,0.00,Wunderground v.1.15,2013-06-26 15:55:00,
2013-06-26 11:05:00,81.8,72.7,29.92,SE,131,0.0,0.0,74,0.00,,,0.00,Wunderground v.1.15,2013-06-26 16:05:00,
2013-06-26 11:15:00,82.2,72.7,29.92,South,186,0.0,0.0,73,0.00,,,0.00,Wunderground v.1.15,2013-06-26 16:15:00,
2013-06-26 11:25:00,82.5,73.0,29.91,SSW,212,0.0,0.0,73,0.00,,,0.00,Wunderground v.1.15,2013-06-26 16:25:00,
2013-06-26 11:35:00,83.0,73.0,29.92,West,263,0.0,0.0,72,0.00,,,0.00,Wunderground v.1.15,2013-06-26 16:35:00,
2013-06-26 11:40:00,83.4,73.0,29.91,SSW,213,0.0,0.0,71,0.00,,,0.00,Wunderground v.1.15,2013-06-26 16:40:00,
2013-06-26 11:50:00,84.0,73.2,29.91,SE,138,0.0,0.0,70,0.00,,,0.00,Wunderground v.1.15,2013-06-26 16:50:00,
2013-06-26 11:58:00,84.6,73.3,29.91,North,-999,0.0,0.0,69,0.00,,,-99.99,WeatherLink 5.7,2013-06-26 16:58:00,
2013-06-26 12:06:00,85.2,73.4,29.91,SW,223,0.0,0.0,68,0.00,,,0.00,Wunderground v.1.15,2013-06-26 17:06:00,
2013-06-26 12:15:00,86.3,73.6,29.90,SSW,213,0.0,0.0,66,0.00,,,0.00,Wunderground v.1.15,2013-06-26 17:15:00,
2013-06-26 12:20:00,86.8,73.6,29.90,SSW,196,0.0,0.0,65,0.00,,,0.00,Wunderground v.1.15,2013-06-26 17:20:00,
2013-06-26 12:29:00,87.1,73.0,29.90,North,-999,0.0,0.0,63,0.00,,,-99.99,WeatherLink 5.7,2013-06-26 17:29:00,
2013-06-26 12:35:00,87.6,73.4,29.89,SW,229,0.0,0.0,63,0.00,,,0.00,Wunderground v.1.15,2013-06-26 17:35:00,
2013-06-26 12:45:00,87.6,73.4,29.89,WSW,255,0.0,0.0,63,0.00,,,0.00,Wunderground v.1.15,2013-06-26 17:45:00,
2013-06-26 12:55:00,89.1,73.9,29.89,SE,125,0.0,0.0,61,0.00,,,0.00,Wunderground v.1.15,2013-06-26 17:55:00,
2013-06-26 13:06:00,89.7,74.0,29.89,SE,130,0.0,0.0,60,0.00,,,0.00,Wunderground v.1.15,2013-06-26 18:06:00,
2013-06-26 13:15:00,90.6,73.3,29.89,SSW,205,0.0,0.0,57,0.00,,,0.00,Wunderground v.1.15,2013-06-26 18:15:00,
2013-06-26 13:20:00,90.3,73.0,29.89,SE,139,0.0,0.0,57,0.00,,,0.00,Wunderground v.1.15,2013-06-26 18:20:00,
2013-06-26 13:28:00,90.4,73.1,29.89,North,-999,0.0,0.0,57,0.00,,,-99.99,WeatherLink 5.7,2013-06-26 18:28:00,
2013-06-26 13:35:00,90.8,73.5,29.89,SE,146,0.0,0.0,57,0.00,,,0.00,Wunderground v.1.15,2013-06-26 18:35:00,
2013-06-26 13:45:00,91.8,73.3,29.88,SE,142,0.0,0.0,55,0.00,,,0.00,Wunderground v.1.15,2013-06-26 18:45:00,
2013-06-26 13:55:00,92.3,72.7,29.88,SE,135,0.0,0.0,53,0.00,,,0.00,Wunderground v.1.15,2013-06-26 18:55:00,
2013-06-26 14:00:00,92.5,72.3,29.88,SSW,209,0.0,0.0,52,0.00,,,0.00,Wunderground v.1.15,2013-06-26 19:00:00,
2013-06-26 14:06:00,92.7,72.5,29.87,SE,141,0.0,0.0,52,0.00,,,0.00,Wunderground v.1.15,2013-06-26 19:06:00,
2013-06-26 14:15:00,92.8,73.2,29.87,SE,133,0.0,0.0,53,0.00,,,0.00,Wunderground v.1.15,2013-06-26 19:15:00,
2013-06-26 14:20:00,93.0,72.2,29.87,SW,218,0.0,0.0,51,0.00,,,0.00,Wunderground v.1.15,2013-06-26 19:20:00,
2013-06-26 14:29:00,93.3,71.9,29.86,North,-999,0.0,0.0,50,0.00,,,-99.99,WeatherLink 5.7,2013-06-26 19:29:00,
2013-06-26 14:35:00,93.5,71.5,29.86,SSW,213,0.0,0.0,49,0.00,,,0.00,Wunderground v.1.15,2013-06-26 19:35:00,
2013-06-26 14:40:00,93.5,71.5,29.86,SSW,192,0.0,0.0,49,0.00,,,0.00,Wunderground v.1.15,2013-06-26 19:40:00,
2013-06-26 14:50:00,93.9,71.2,29.85,South,190,0.0,0.0,48,0.00,,,0.00,Wunderground v.1.15,2013-06-26 19:50:00,
2013-06-26 14:58:00,94.3,71.0,29.85,North,-999,0.0,0.0,47,0.00,,,-99.99,WeatherLink 5.7,2013-06-26 19:58:00,
2013-06-26 15:06:00,94.7,71.3,29.85,ESE,115,0.0,0.0,47,0.00,,,0.00,Wunderground v.1.15,2013-06-26 20:06:00,
2013-06-26 15:15:00,94.8,70.8,29.85,SE,132,0.0,0.0,46,0.00,,,0.00,Wunderground v.1.15,2013-06-26 20:15:00,
2013-06-26 15:25:00,95.2,69.8,29.85,SE,142,0.0,0.0,44,0.00,,,0.00,Wunderground v.1.15,2013-06-26 20:25:00,
2013-06-26 15:30:00,95.2,69.8,29.85,SE,138,0.0,0.0,44,0.00,,,0.00,Wunderground v.1.15,2013-06-26 20:30:00,
2013-06-26 15:40:00,95.5,70.1,29.84,SE,132,0.0,0.0,44,0.00,,,0.00,Wunderground v.1.15,2013-06-26 20:40:00,
2013-06-26 15:50:00,95.9,69.1,29.84,SSW,195,0.0,0.0,42,0.00,,,0.00,Wunderground v.1.15,2013-06-26 20:50:00,
2013-06-26 15:58:00,95.7,69.6,29.84,North,-999,0.0,0.0,43,0.00,,,-99.99,WeatherLink 5.7,2013-06-26 20:58:00,
2013-06-26 16:06:00,96.1,68.6,29.83,SSE,148,0.0,0.0,41,0.00,,,0.00,Wunderground v.1.15,2013-06-26 21:06:00,
2013-06-26 16:15:00,96.5,68.9,29.83,SE,130,0.0,0.0,41,0.00,,,0.00,Wunderground v.1.15,2013-06-26 21:15:00,
2013-06-26 16:25:00,96.5,68.9,29.83,SW,227,0.0,0.0,41,0.00,,,0.00,Wunderground v.1.15,2013-06-26 21:25:00,
2013-06-26 16:35:00,96.6,68.3,29.83,SE,145,0.0,0.0,40,0.00,,,0.00,Wunderground v.1.15,2013-06-26 21:35:00,
2013-06-26 16:40:00,96.6,66.1,29.82,SSE,156,0.0,0.0,37,0.00,,,0.00,Wunderground v.1.15,2013-06-26 21:40:00,
2013-06-26 16:50:00,97.0,67.2,29.82,SSE,148,0.0,0.0,38,0.00,,,0.00,Wunderground v.1.15,2013-06-26 21:50:00,
2013-06-26 16:59:00,97.0,67.9,29.82,North,-999,0.0,0.0,39,0.00,,,-99.99,WeatherLink 5.7,2013-06-26 21:59:00,
2013-06-26 17:06:00,97.2,67.4,29.81,SW,232,0.0,0.0,38,0.00,,,0.00,Wunderground v.1.15,2013-06-26 22:06:00,
2013-06-26 17:15:00,97.3,67.4,29.81,SSE,157,0.0,0.0,38,0.00,,,0.00,Wunderground v.1.15,2013-06-26 22:15:00,
2013-06-26 17:20:00,97.6,66.1,29.81,SE,127,0.0,0.0,36,0.00,,,0.00,Wunderground v.1.15,2013-06-26 22:20:00,
2013-06-26 17:28:00,97.3,65.9,29.81,North,-999,0.0,0.0,36,0.00,,,-99.99,WeatherLink 5.7,2013-06-26 22:28:00,
2013-06-26 17:35:00,97.6,66.9,29.81,SE,124,0.0,0.0,37,0.00,,,0.00,Wunderground v.1.15,2013-06-26 22:35:00,
2013-06-26 17:45:00,97.8,67.9,29.81,SSW,211,0.0,0.0,38,0.00,,,0.00,Wunderground v.1.15,2013-06-26 22:45:00,
2013-06-26 17:55:00,97.7,67.0,29.80,SSW,209,0.0,0.0,37,0.00,,,0.00,Wunderground v.1.15,2013-06-26 22:55:00,
2013-06-26 18:06:00,97.7,67.0,29.80,ESE,120,0.0,0.0,37,0.00,,,0.00,Wunderground v.1.15,2013-06-26 23:06:00,
2013-06-26 18:15:00,97.4,66.8,29.80,SSE,160,0.0,0.0,37,0.00,,,0.00,Wunderground v.1.15,2013-06-26 23:15:00,
2013-06-26 18:25:00,97.3,65.9,29.80,ESE,109,0.0,0.0,36,0.00,,,0.00,Wunderground v.1.15,2013-06-26 23:25:00,
2013-06-26 18:35:00,97.0,65.6,29.80,SW,217,0.0,0.0,36,0.00,,,0.00,Wunderground v.1.15,2013-06-26 23:35:00,
2013-06-26 18:45:00,96.9,66.3,29.80,SE,144,0.0,0.0,37,0.00,,,0.00,Wunderground v.1.15,2013-06-26 23:45:00,
2013-06-26 18:55:00,96.9,67.1,29.80,SE,140,0.0,0.0,38,0.00,,,0.00,Wunderground v.1.15,2013-06-26 23:55:00,
2013-06-26 19:00:00,96.9,67.1,29.80,ESE,115,0.0,0.0,38,0.00,,,0.00,Wunderground v.1.15,2013-06-27 00:00:00,
2013-06-26 19:06:00,96.9,67.1,29.80,SW,216,0.0,0.0,38,0.00,,,0.00,Wunderground v.1.15,2013-06-27 00:06:00,
2013-06-26 19:15:00,96.7,67.7,29.80,SSW,198,0.0,0.0,39,0.00,,,0.00,Wunderground v.1.15,2013-06-27 00:15:00,
2013-06-26 19:25:00,96.4,66.7,29.80,SW,228,0.0,0.0,38,0.00,,,0.00,Wunderground v.1.15,2013-06-27 00:25:00,
2013-06-26 19:30:00,96.2,66.5,29.80,ESE,110,0.0,0.0,38,0.00,,,0.00,Wunderground v.1.15,2013-06-27 00:30:00,
2013-06-26 19:40:00,96.0,67.8,29.80,SSW,197,0.0,0.0,40,0.00,,,0.00,Wunderground v.1.15,2013-06-27 00:40:00,
2013-06-26 19:50:00,95.7,67.5,29.80,SE,141,0.0,0.0,40,0.00,,,0.00,Wunderground v.1.15,2013-06-27 00:50:00,
2013-06-26 19:59:00,95.4,68.0,29.81,North,-999,0.0,0.0,41,0.00,,,-99.99,WeatherLink 5.7,2013-06-27 00:59:00,
2013-06-26 20:06:00,95.1,67.7,29.81,SSE,148,0.0,0.0,41,0.00,,,0.00,Wunderground v.1.15,2013-06-27 01:06:00,
2013-06-26 20:15:00,94.7,67.3,29.81,SE,144,0.0,0.0,41,0.00,,,0.00,Wunderground v.1.15,2013-06-27 01:15:00,
2013-06-26 20:20:00,94.5,67.9,29.81,SE,144,0.0,0.0,42,0.00,,,0.00,Wunderground v.1.15,2013-06-27 01:20:00,
2013-06-26 20:29:00,94.2,67.6,29.81,North,-999,0.0,0.0,42,0.00,,,-99.99,WeatherLink 5.7,2013-06-27 01:29:00,
2013-06-26 20:35:00,93.9,68.0,29.81,SE,137,0.0,0.0,43,0.00,,,0.00,Wunderground v.1.15,2013-06-27 01:35:00,
2013-06-26 20:45:00,93.2,68.0,29.81,SE,138,0.0,0.0,44,0.00,,,0.00,Wunderground v.1.15,2013-06-27 01:45:00,
2013-06-26 20:55:00,92.6,67.5,29.81,SE,138,0.0,0.0,44,0.00,,,0.00,Wunderground v.1.15,2013-06-27 01:55:00,
2013-06-26 21:00:00,92.2,67.8,29.82,SE,138,0.0,0.0,45,0.00,,,0.00,Wunderground v.1.15,2013-06-27 02:00:00,
2013-06-26 21:05:00,91.8,67.4,29.82,SE,138,0.0,0.0,45,0.00,,,0.00,Wunderground v.1.15,2013-06-27 02:05:00,
2013-06-26 21:15:00,91.3,67.6,29.82,SE,138,0.0,0.0,46,0.00,,,0.00,Wunderground v.1.15,2013-06-27 02:15:00,
2013-06-26 21:25:00,90.9,67.3,29.82,SE,141,0.0,0.0,46,0.00,,,0.00,Wunderground v.1.15,2013-06-27 02:25:00,
2013-06-26 21:35:00,90.7,67.1,29.83,SE,143,0.0,0.0,46,0.00,,,0.00,Wunderground v.1.15,2013-06-27 02:35:00,
2013-06-26 21:40:00,90.5,67.5,29.83,SE,143,0.0,0.0,47,0.00,,,0.00,Wunderground v.1.15,2013-06-27 02:40:00,
2013-06-26 21:50:00,90.1,67.2,29.83,SE,143,0.0,0.0,47,0.00,,,0.00,Wunderground v.1.15,2013-06-27 02:50:00,
2013-06-26 21:59:00,89.7,66.8,29.84,North,-999,0.0,0.0,47,0.00,,,-99.99,WeatherLink 5.7,2013-06-27 02:59:00,
2013-06-26 22:06:00,89.6,67.3,29.84,SE,137,0.0,0.0,48,0.00,,,0.00,Wunderground v.1.15,2013-06-27 03:06:00,
2013-06-26 22:15:00,89.5,67.8,29.84,SSE,150,0.0,0.0,49,0.00,,,0.00,Wunderground v.1.15,2013-06-27 03:15:00,
2013-06-26 22:20:00,89.5,67.8,29.84,SE,142,0.0,0.0,49,0.00,,,0.00,Wunderground v.1.15,2013-06-27 03:20:00,
2013-06-26 22:28:00,89.4,68.3,29.85,North,-999,0.0,0.0,50,0.00,,,-99.99,WeatherLink 5.7,2013-06-27 03:28:00,
2013-06-26 22:35:00,89.2,68.1,29.85,SE,136,0.0,0.0,50,0.00,,,0.00,Wunderground v.1.15,2013-06-27 03:35:00,
2013-06-26 22:40:00,89.1,68.0,29.85,SSW,202,0.0,0.0,50,0.00,,,0.00,Wunderground v.1.15,2013-06-27 03:40:00,
2013-06-26 22:50:00,89.0,68.5,29.86,SSE,152,0.0,0.0,51,0.00,,,0.00,Wunderground v.1.15,2013-06-27 03:50:00,
2013-06-26 22:59:00,88.7,68.2,29.86,North,-999,0.0,0.0,51,0.00,,,-99.99,WeatherLink 5.7,2013-06-27 03:59:00,
2013-06-26 23:06:00,88.5,68.1,29.86,ESE,123,0.0,0.0,51,0.00,,,0.00,Wunderground v.1.15,2013-06-27 04:06:00,
2013-06-26 23:10:00,88.4,68.0,29.86,SE,142,0.0,0.0,51,0.00,,,0.00,Wunderground v.1.15,2013-06-27 04:10:00,
2013-06-26 23:15:00,88.2,68.4,29.86,SE,130,0.0,0.0,52,0.00,,,0.00,Wunderground v.1.15,2013-06-27 04:15:00,
2013-06-26 23:20:00,87.9,68.1,29.86,SE,128,0.0,0.0,52,0.00,,,0.00,Wunderground v.1.15,2013-06-27 04:20:00,
2013-06-26 23:25:00,87.7,67.9,29.87,SE,144,0.0,0.0,52,0.00,,,0.00,Wunderground v.1.15,2013-06-27 04:25:00,
2013-06-26 23:30:00,87.6,67.8,29.87,SSE,148,0.0,0.0,52,0.00,,,0.00,Wunderground v.1.15,2013-06-27 04:30:00,
2013-06-26 23:35:00,87.4,68.2,29.86,SE,143,0.0,0.0,53,0.00,,,0.00,Wunderground v.1.15,2013-06-27 04:35:00,
2013-06-26 23:45:00,87.0,67.8,29.87,South,190,0.0,0.0,53,0.00,,,0.00,Wunderground v.1.15,2013-06-27 04:45:00,
2013-06-26 23:55:00,86.6,68.0,29.87,SE,138,0.0,0.0,54,0.00,,,0.00,Wunderground v.1.15,2013-06-27 04:55:00,